Home > Weather > Elizabeth > Past weeks

Flag for USA Past Weather in Elizabeth, New Jersey, USA — Yesterday and Last 2 Weeks

Now
82 °F

Scattered clouds.


Feels Like: 83 °F
Forecast: 69 / 84 °F
Wind: 9 mph from Southeast

Location: Newark International Airport

Current Time: May 31, 2016 at 4:04:09 PM

Latest Report: May 31, 2016 at 2:51 PM


Visibility: 10 mi

Pressure: 29.92 "Hg

Humidity: 53%

Dew Point: 63 °F

Location of ElizabethLocation

Past Weather in Elizabeth — Graph

°F

Elizabeth Temperature Yesterday

Maximum temperature yesterday: 81 °F (at 11:51 AM)
Minimum temperature yesterday: 69 °F (at 4:51 AM)
Average temperature yesterday: 75 °F

High & Low Weather Summary for the Past Weeks

 TemperatureHumidityPressure
High95 °F (May 28, 2:51 PM)100% (May 30, 1:51 AM)30.26 "Hg (May 30, 1:51 AM)
Low50 °F (May 18, 4:51 AM)17% (May 25, 3:51 PM)29.80 "Hg (May 22, 3:51 AM)
Average69 °F57%30.03 "Hg
* Reported May 16 2:51 PM — May 31 2:51 PM, Elizabeth, Weather by CustomWeather, © 2016

Note: Actual official high and low records may vary slightly from our data, if they occured in-between our weather recording intervals... More about our weather records

Advertising

Elizabeth Weather History for the Previous 24 Hours

Scroll right to see more
 ConditionsComfort  
Time TempWeatherWind HumidityBarometerVisibility
2:51 PM
Tue, May 31
82 °FScattered clouds.9 mph53%29.92 "Hg10 mi
1:51 PM83 °FBroken clouds.7 mph51%29.93 "Hg10 mi
12:51 PM83 °FBroken clouds.7 mph46%29.95 "Hg10 mi
11:51 AM81 °FBroken clouds.7 mph45%29.96 "Hg10 mi
10:51 AM80 °FBroken clouds.3 mph54%29.97 "Hg10 mi
9:51 AM78 °FBroken clouds.7 mph66%29.96 "Hg10 mi
8:51 AM75 °FPartly sunny.7 mph74%29.96 "Hg10 mi
7:51 AM75 °FBroken clouds.No wind79%29.95 "Hg10 mi
6:51 AM72 °FCloudy.7 mph87%29.94 "Hg10 mi
5:51 AM71 °FOvercast.5 mph90%29.92 "Hg10 mi
4:51 AM72 °FMostly cloudy.6 mph87%29.92 "Hg10 mi
3:51 AM72 °FOvercast.6 mph87%29.92 "Hg10 mi
2:51 AM72 °FMostly cloudy.7 mph87%29.93 "Hg10 mi
1:51 AM71 °FMostly cloudy.8 mph90%29.93 "Hg10 mi
12:51 AM72 °FPassing clouds.6 mph87%29.93 "Hg10 mi
12:04 AM73 °FPartly cloudy.13 mph83%29.95 "Hg10 mi
11:51 PM
Mon, May 30
73 °FPartly cloudy.13 mph84%29.95 "Hg10 mi
10:51 PM74 °FMostly cloudy.12 mph85%29.95 "Hg10 mi
9:51 PM74 °FMostly cloudy.13 mph85%29.94 "Hg10 mi
8:51 PM75 °FCloudy.12 mph85%29.94 "Hg10 mi
7:51 PM76 °FCloudy.13 mph82%29.94 "Hg10 mi
6:51 PM78 °FCloudy.12 mph74%29.91 "Hg10 mi
5:51 PM79 °FBroken clouds.10 mph67%29.92 "Hg10 mi
4:51 PM80 °FBroken clouds.9 mph64%29.91 "Hg10 mi
Weather by CustomWeather, © 2016

See weather overviewHow to use our weather pages